THORAD AGENA D DEB, 4855

Orbit data source: Space-Track

THORAD AGENA D DEB, 4855 is space debris in SSO originally from a launch on Wed, 08 Apr 1970 UTC launched from the Air Force Western Test Range (AFWTR). Debris objects in space refer to the collection of defunct objects orbiting the Earth. Examples of debris include non-operational satellites, rocket bodies, and fragments generated from explosions, collisions, or faulty payload assembly.

Loading next visibility...
Identifier
4855, 1970-025EK
Orbit
SSO
Country
Flag of USUS
Related business
Manufacturer
Unknown
Mission
Spacecraft
Bus & Motor
Unknown
Mass
Unknown
Launch date (UTC)
1970-04-08 (56 years ago)
Launch vehicle
Unknown
Launch site
Air Force Western Test Range (AFWTR)
Object type
Payload
Rocket body
Debris
Shape & HBR
Unknown shape, 0.1 m
Radar Cross Section
Medium (>0.1 m² and <1 m²)

Expand to show TLE details & history
Last TLE update: 2 days ago

TLE from 2 days ago
0 THORAD AGENA D DEB
1 04855U 70025EK  26235.64617279  .00000426  00000-0  49738-3 0  9992
2 04855  99.9546 191.7250 0013784 246.8382 289.7473 13.74882724806243
Epoch: 2026-08-23T15:30Z
TLE epoch observation values (Epoch: 2026-08-23T15:30:29.329Z)
Latitude
3.41711°
Longitude
167.76089°
Altitude
981.109 km
Speed
7.363 km/s
True Right ascension
00h 49m 17s
True Declination
3° 23' 50"
Sunlit
Object was in full shadow at epoch
Visualization orbit readout
Latitude
Unknown
Longitude
Unknown
Altitude
Unknown
Speed
Unknown
Apparent Right ascension
Unknown
Apparent Declination
Unknown
Sunlit
N/A
Visualization observer readout
Local Sidereal Time
21:11:32
Azimuth
Unknown
Elevation
Unknown
Doppler factor
Unknown
Orbital elements
Apogee altitude
989.517 km
Perigee altitude
969.233 km
Semi-major axis
7,357.512 km
Eccentricity
0.00138
Inclination
99.9546°
RAAN
191.725°
Arg. of periapsis
246.8382°
True anomaly
289.59855°
Mean anomaly
289.7473°
Eccentric anomaly
289.67293°
Mean motion
3.43912 °/min
Orbital period
104.68 mins
BSTAR
0.00049738
Loading maneuver chart data...
Computing Atmospheric mass density...

Documentation

Showing up to 5 results
|